Home   Weather   Ede   Past weeks

Flag for Netherlands Past Weather in Ede, Netherlands — Yesterday and Last 2 Weeks

Now
45 °F

Partly cloudy.


Feels Like: 40 °F
Forecast: 42 / 50 °F
Wind: 8 mph from West

Location: Deelen

Current Time: Dec 11, 2016 at 7:13:34 am

Latest Report: Dec 11, 2016 at 6:25 am


Visibility: N/A

Pressure: 30.04 "Hg

Humidity: 93%

Dew Point: 43 °F

Location of EdeLocation

Past Weather in Ede — Graph

°F

Ede Temperature Yesterday

Maximum temperature yesterday: 48 °F (at 10:25 pm)
Minimum temperature yesterday: 43 °F (at 3:25 am)
Average temperature yesterday: 45 °F

High & Low Weather Summary for the Past Weeks

 TemperatureHumidityPressure
High52 °F (Dec 9, 4:25 pm)100% (Nov 26, 5:25 am)30.57 "Hg (Nov 26, 5:25 am)
Low18 °F (Nov 30, 2:25 am)56% (Nov 29, 2:55 pm)29.89 "Hg (Dec 11, 2:55 am)
Average37 °F87%30.31 "Hg
* Reported Nov 26 5:25 am — Dec 11 5:55 am, Ede, Weather by CustomWeather, © 2016

Note: Actual official high and low records may vary slightly from our data, if they occured in-between our weather recording intervals... More about our weather records

Advertising

Ede Weather History for the Previous 24 Hours

Scroll right to see more
 ConditionsComfort  
Time TempWeatherWind HumidityBarometerVisibility
5:55 am
Sun, Dec 11
45 °FPassing clouds.9 mph93%30.01 "HgN/A
5:25 am45 °FPassing clouds.14 mph93%30.01 "HgN/A
4:55 am46 °FPartly cloudy.17 mph87%29.98 "HgN/A
4:25 am45 °FPartly cloudy.16 mph93%29.95 "HgN/A
3:55 am45 °FFog.22 mph93%29.92 "Hg4 mi
2:55 am48 °FPartly cloudy.18 mph94%29.89 "Hg4 mi
2:25 am48 °FDrizzle. Mostly cloudy.21 mph94%29.92 "Hg3 mi
1:55 am48 °FLight rain. Passing clouds.18 mph94%29.92 "Hg3 mi
1:25 am48 °FRain. Partly cloudy.17 mph94%29.95 "Hg2 mi
12:55 am48 °FLight rain. Partly cloudy.17 mph94%29.95 "Hg2 mi
12:25 am48 °FPartly cloudy.14 mph94%29.98 "Hg2 mi
11:55 pm
Sat, Dec 10
48 °FPartly cloudy.17 mph94%30.01 "Hg2 mi
11:25 pm48 °FLight rain. Mostly cloudy.15 mph100%30.01 "Hg2 mi
10:55 pm48 °FDrizzle. Mostly cloudy.14 mph100%30.04 "Hg1 mi
10:25 pm48 °FLight rain. Mostly cloudy.13 mph94%30.04 "Hg1 mi
9:55 pm46 °FFog.12 mph100%30.07 "Hg1 mi
9:25 pm46 °FDrizzle. Mostly cloudy.10 mph100%30.07 "Hg1 mi
8:55 pm46 °FDrizzle. Mostly cloudy.10 mph100%30.09 "Hg2 mi
8:25 pm46 °FLight rain. Mostly cloudy.10 mph100%30.09 "Hg1 mi
7:55 pm46 °FFog.10 mph100%30.12 "Hg1 mi
7:25 pm46 °FFog.8 mph93%30.12 "Hg1 mi
6:55 pm45 °FFog.8 mph100%30.12 "Hg1 mi
6:25 pm45 °FLight rain. Passing clouds.8 mph100%30.12 "Hg1 mi
5:55 pm45 °FFog.10 mph100%30.15 "Hg1 mi
5:25 pm45 °FFog.9 mph100%30.15 "Hg1 mi
4:55 pm45 °FFog.9 mph100%30.15 "Hg1 mi
4:25 pm45 °FDrizzle. Mostly cloudy.8 mph100%30.15 "Hg1 mi
3:55 pm45 °FFog.9 mph100%30.15 "Hg1 mi
3:25 pm45 °FFog.9 mph100%30.15 "Hg1 mi
2:55 pm45 °FLight rain. Mostly cloudy.9 mph100%30.15 "Hg1 mi
2:25 pm45 °FDrizzle. Mostly cloudy.10 mph100%30.18 "Hg1 mi
1:55 pm45 °FLight rain. Mostly cloudy.9 mph100%30.18 "Hg1 mi
1:25 pm45 °FLight rain. Mostly cloudy.9 mph100%30.18 "Hg1 mi
12:55 pm45 °FDrizzle. Mostly cloudy.8 mph93%30.18 "Hg1 mi
12:25 pm45 °FDrizzle. Mostly cloudy.9 mph93%30.21 "Hg1 mi
11:55 am45 °FDrizzle. Low clouds.9 mph93%30.21 "Hg2 mi
11:25 am45 °FFog.10 mph93%30.21 "Hg4 mi
10:55 am45 °FFog.12 mph87%30.21 "Hg4 mi
10:25 am45 °FFog.9 mph87%30.21 "Hg5 mi
9:55 am45 °FFog.10 mph87%30.18 "Hg6 mi
9:25 am45 °FFog.9 mph87%30.18 "Hg6 mi
8:55 am45 °FFog.9 mph87%30.18 "Hg6 mi
8:25 am43 °FFog.10 mph93%30.18 "Hg5 mi
7:55 am43 °FFog.9 mph93%30.18 "Hg5 mi
7:25 am43 °FFog.12 mph93%30.18 "Hg6 mi
Weather by CustomWeather, © 2016

See weather overviewHow to use our weather pages